Theta_e
299 299 300 299 299 299 300 300 300 300 300 300 301 301 301 302 301 302 303 303 302 303 304 303 304 304 303 303 302 304 305 304 303 302 301 302 303 304 305 305 306 307 307 308 307 309 308 307 306 307 310 308 307 309 308 304 304 314 318 315 313 313 310 306 308 311 311 308 305 303 303 307 305 300 298 297 297 296 296 295 295 296 296 296 295 295 295 295
299 300 300 299 299 299 300 300 300 301 300 300 301 302 302 303 302 303 304 303 302 303 303 304 305 304 305 304 302 304 305 304 302 301 301 302 302 304 305 305 306 307 307 307 306 307 307 306 304 307 312 309 306 308 309 306 306 312 314 312 311 309 305 302 304 307 308 306 302 300 301 304 303 300 299 300 299 297 297 296 296 295 295 296 295 295 295 295
300 300 299 299 299 300 301 300 301 301 300 301 301 302 302 302 303 304 304 303 302 303 303 304 305 304 305 305 303 304 304 305 302 300 301 302 304 305 305 305 305 306 307 306 305 304 305 305 303 306 310 308 306 307 307 308 309 308 310 313 307 304 302 299 302 305 305 302 302 301 299 300 298 297 300 300 299 298 298 297 296 296 295 295 295 295 294 295
299 299 299 299 300 300 300 301 301 301 301 301 301 302 302 302 303 304 304 303 303 303 303 304 304 304 305 304 304 303 305 307 303 300 302 302 304 306 305 305 305 306 306 306 305 304 304 303 302 306 308 308 308 306 304 306 309 306 307 312 305 303 304 300 300 302 301 300 301 301 301 300 296 296 298 301 306 302 297 297 297 296 295 295 295 295 294 294
299 299 299 299 300 300 300 301 300 301 301 301 301 301 302 302 303 304 304 304 303 303 303 304 303 304 304 303 304 303 307 310 303 300 303 303 305 306 305 305 305 305 306 306 306 305 305 303 304 309 307 306 308 308 306 303 305 304 303 305 303 303 304 300 299 299 299 300 301 301 302 301 296 296 296 299 307 302 296 297 297 296 295 295 295 294 293 292
299 299 299 300 300 300 300 300 300 301 301 301 302 301 302 302 302 304 304 305 304 303 303 303 303 303 304 304 304 303 307 307 301 301 303 303 306 306 305 306 305 306 306 306 305 305 305 303 306 311 307 304 305 305 305 302 302 304 303 302 301 301 302 300 299 299 299 302 302 300 300 298 298 298 295 296 300 297 296 296 296 296 295 295 294 293 292 292
299 299 300 300 300 301 301 301 301 302 302 302 302 302 301 302 302 303 304 304 304 303 303 304 304 304 305 305 303 303 304 303 300 302 303 304 306 305 306 307 306 307 307 305 304 304 305 305 305 308 308 306 305 304 303 302 302 303 303 301 299 299 299 297 298 298 299 301 299 299 299 298 300 300 296 296 296 295 295 294 294 295 294 293 292 292 292 292
299 299 300 300 301 301 301 302 302 302 302 302 303 302 302 302 302 303 304 304 304 304 303 303 304 305 307 307 305 304 303 301 301 302 304 305 306 305 306 307 306 307 306 303 303 304 305 306 304 306 308 306 305 306 305 304 303 303 302 301 300 299 297 297 298 299 299 298 296 298 299 297 297 299 297 295 295 294 293 292 293 292 292 292 291 292 292 292
299 300 300 301 301 301 302 302 302 302 301 302 304 303 302 302 303 304 305 305 305 305 304 304 304 304 306 306 306 305 302 301 301 303 304 305 306 305 305 306 306 306 305 303 304 304 305 306 305 306 306 304 304 305 306 305 304 303 301 301 300 299 299 300 300 300 300 297 298 299 297 296 295 296 297 295 295 294 292 292 291 292 294 293 291 292 292 292
300 300 300 301 301 301 302 302 302 302 301 302 304 304 303 303 303 304 305 306 305 305 305 305 304 304 304 304 305 305 302 301 302 303 305 305 306 306 305 305 305 305 304 302 303 302 304 305 303 303 304 303 302 302 303 304 303 301 300 300 300 300 300 301 302 301 301 298 299 301 298 297 296 298 299 295 294 294 294 294 292 294 296 294 292 291 292 293
300 300 301 301 302 302 302 302 302 302 303 303 304 304 303 303 303 304 305 305 305 305 305 305 307 305 303 303 304 304 302 302 303 303 304 304 305 304 304 304 304 305 303 301 300 300 302 302 300 302 304 303 301 301 301 301 301 299 300 301 301 302 300 301 303 301 301 299 298 301 299 298 299 300 299 295 294 294 295 294 293 295 295 294 292 290 291 292
300 300 301 301 301 302 301 302 302 302 304 304 305 304 303 303 303 305 305 305 305 305 305 306 307 306 304 303 303 302 302 302 303 303 304 304 304 303 302 303 304 304 303 301 300 301 302 301 302 305 305 303 302 302 301 301 302 301 302 303 303 305 301 300 302 300 301 300 297 299 301 302 302 300 297 294 294 294 295 294 293 294 293 294 292 290 291 291
300 300 301 301 301 301 302 302 302 303 304 304 304 304 303 303 304 305 305 305 305 305 305 305 306 305 305 305 303 302 303 302 303 304 304 304 304 303 302 303 303 303 303 301 300 301 302 302 302 303 303 304 303 301 302 303 303 302 302 304 308 310 303 299 299 299 301 300 297 298 301 303 302 299 295 293 294 294 295 294 293 294 294 294 294 293 292 290
300 300 301 301 301 301 302 302 302 303 304 304 305 305 304 303 304 305 305 306 305 305 305 305 305 305 305 304 303 303 303 303 304 304 304 303 304 303 302 302 303 303 302 301 300 300 302 303 302 300 301 302 301 302 306 308 305 304 303 304 309 309 303 301 299 299 300 300 298 299 301 302 299 297 295 293 294 295 295 294 294 294 295 295 295 296 294 291
300 301 301 301 301 302 302 302 302 302 304 304 304 305 304 304 303 304 305 306 306 306 305 305 306 306 307 305 303 303 303 303 303 302 303 303 302 303 303 303 302 302 302 301 301 301 301 301 301 300 300 299 302 307 309 311 308 305 306 306 307 306 303 302 299 297 298 300 299 299 302 301 298 297 295 293 293 295 296 295 294 294 295 296 295 295 295 293
300 301 301 301 301 302 302 302 302 302 303 304 305 305 305 305 304 303 304 304 306 306 306 306 304 306 309 306 303 304 302 302 302 301 302 303 301 301 302 303 303 302 302 302 302 301 301 301 300 299 299 299 301 307 310 312 310 306 306 307 305 303 303 302 299 297 297 299 299 299 301 300 297 296 294 293 293 294 295 295 295 295 295 295 294 295 295 294
300 301 301 301 301 302 302 302 303 303 303 304 304 304 304 305 305 303 303 305 306 305 307 306 303 306 307 304 304 305 302 301 302 301 302 303 302 301 301 303 302 301 302 303 303 303 301 302 303 300 299 298 297 303 312 311 308 307 307 306 302 300 301 301 300 299 297 298 298 297 298 297 295 294 294 294 293 294 295 295 295 295 294 294 294 294 294 294
301 301 301 301 301 302 302 302 303 304 303 304 303 303 304 305 305 305 305 305 305 306 308 306 305 311 309 303 304 303 301 302 301 301 302 303 303 301 301 301 299 302 308 307 303 304 303 303 305 301 299 298 295 300 310 307 304 305 306 305 301 300 301 299 299 298 297 297 296 296 297 295 293 293 295 294 293 294 294 295 295 295 295 295 295 295 294 294
300 301 301 302 302 302 302 302 303 304 304 303 302 303 304 306 306 305 304 304 307 307 308 305 304 310 308 303 302 301 301 302 301 300 301 303 303 302 301 300 300 305 312 310 303 304 304 302 303 303 302 300 297 297 301 301 302 304 303 302 300 301 302 298 297 297 296 297 296 296 296 294 294 294 295 295 294 296 296 297 298 297 296 295 295 295 294 294
301 301 301 302 302 302 302 302 303 304 304 303 304 304 305 312 314 308 302 303 303 302 304 305 303 306 305 302 301 301 302 303 301 300 301 302 302 302 300 300 304 303 305 307 304 304 303 300 301 302 300 300 298 295 296 297 299 302 303 302 300 301 303 299 298 296 295 298 298 297 295 294 294 294 295 296 297 298 298 298 298 296 295 294 294 293 293 293
301 301 301 302 302 302 302 302 302 303 305 304 305 307 308 313 316 309 304 304 301 299 302 302 301 303 302 301 300 300 302 304 302 299 301 301 302 304 301 301 305 303 303 305 305 305 302 299 299 298 297 298 298 295 296 298 300 303 303 303 302 301 302 300 297 297 297 299 298 297 296 295 295 294 294 296 297 296 296 296 296 296 295 295 294 294 293 291
301 301 301 302 303 303 301 302 303 303 305 304 305 306 303 304 306 303 304 307 301 299 301 299 301 303 300 300 300 299 301 303 303 300 299 303 304 303 301 300 302 300 302 307 307 304 301 299 298 297 295 297 297 296 298 300 302 304 303 305 305 300 301 301 298 298 299 299 298 296 296 296 296 295 295 295 296 295 295 295 295 294 296 296 295 295 295 294
301 301 301 302 303 303 302 302 302 303 306 305 304 302 301 301 302 301 304 308 303 299 301 302 303 304 303 301 300 300 301 300 303 301 298 304 307 304 303 300 299 298 299 303 304 302 301 299 297 296 296 298 299 297 299 302 301 302 303 304 303 300 301 302 300 300 300 300 300 299 298 298 298 298 295 295 296 295 295 296 294 294 294 295 295 295 296 297
301 301 301 302 303 304 303 302 302 303 303 304 302 301 302 303 303 303 304 307 306 302 300 300 300 302 303 301 300 302 303 300 301 300 297 302 306 305 305 302 300 300 298 299 300 299 300 297 296 297 298 299 300 298 299 302 302 303 303 302 301 299 299 300 300 300 300 299 299 301 304 302 299 299 297 296 297 295 295 296 295 295 295 294 296 295 297 298
301 302 301 302 303 304 304 302 302 301 300 301 301 300 302 303 302 304 307 311 311 304 301 299 299 301 300 300 300 301 303 302 299 299 297 299 303 305 304 301 302 302 299 299 300 299 298 296 296 298 300 301 301 299 298 299 303 304 301 300 299 297 297 298 299 301 304 303 298 300 307 306 301 298 297 297 298 297 296 297 297 298 297 297 297 296 298 298
300 302 302 302 303 305 305 303 301 301 301 299 298 300 301 303 303 303 310 324 317 304 304 304 302 302 301 300 299 299 306 306 298 297 298 297 299 302 304 303 303 303 300 300 301 300 299 298 297 298 300 302 301 300 298 297 304 304 298 297 297 296 297 299 300 302 307 305 298 299 305 305 302 297 296 298 298 297 298 298 298 297 298 298 298 298 298 298
300 301 302 302 302 304 305 303 300 300 301 299 298 299 299 302 304 301 311 332 321 304 304 307 303 302 302 299 298 302 310 306 299 298 298 297 298 301 305 305 304 303 298 301 305 302 300 301 300 298 300 302 300 300 298 296 303 303 297 297 297 298 299 300 303 306 307 303 299 299 301 303 305 300 297 297 297 298 298 298 298 298 298 298 299 298 298 297
300 300 301 302 302 302 302 301 300 299 300 299 298 299 299 301 301 302 315 325 312 303 304 305 303 301 302 300 300 305 305 301 302 300 296 297 299 301 304 302 302 301 297 305 311 302 299 301 299 298 299 301 300 298 297 297 301 300 297 297 297 298 300 301 306 308 305 304 303 300 298 303 310 305 298 296 295 297 298 297 298 298 297 298 298 298 299 298
300 301 300 301 302 301 300 300 299 298 299 299 298 299 298 299 301 307 321 317 305 303 302 302 303 302 303 304 303 304 302 301 302 299 297 298 298 300 302 300 301 301 298 305 307 300 298 299 299 298 298 299 299 298 298 298 299 298 297 299 297 298 301 301 305 308 307 309 307 300 297 302 309 305 297 295 296 297 297 298 299 300 299 298 298 298 298 297
300 301 300 301 302 301 301 300 298 297 298 298 299 299 297 303 315 320 318 312 304 301 301 303 303 302 305 310 307 303 302 303 300 299 300 298 297 300 298 297 302 304 302 302 303 300 298 298 298 298 297 297 297 298 298 298 299 297 298 300 299 300 302 301 303 306 310 313 306 297 297 301 305 306 300 296 297 297 297 298 299 300 299 298 298 297 296 296
301 301 300 301 301 301 301 300 298 297 298 299 299 300 301 309 332 333 311 305 304 304 303 302 303 303 305 308 305 302 304 305 301 301 303 298 297 300 299 299 304 311 313 307 303 302 300 300 299 297 297 296 296 298 297 298 299 299 301 303 302 303 303 304 309 311 313 312 303 297 297 299 304 309 303 298 298 298 297 297 298 298 299 298 298 298 296 294
301 301 300 301 300 301 301 300 300 297 299 301 300 307 317 316 322 321 309 306 305 305 304 301 302 303 304 306 303 300 304 306 302 300 301 300 298 297 298 299 299 309 316 307 304 304 300 300 299 298 297 295 299 304 303 303 301 299 302 305 309 314 310 310 315 313 312 309 299 296 298 299 303 307 303 299 298 299 298 298 298 297 298 298 297 297 296 294
300 301 301 300 300 301 301 301 301 299 301 303 302 315 336 329 312 306 307 309 302 300 300 300 302 301 303 307 304 300 301 301 302 300 297 300 302 298 297 296 294 302 306 303 304 308 306 302 299 300 300 296 299 303 304 304 301 299 301 303 310 315 312 313 312 305 307 307 298 294 298 301 303 303 300 299 298 298 298 297 297 298 298 298 297 296 296 296
300 302 300 300 301 300 301 302 301 301 302 304 307 317 324 318 309 304 306 306 299 299 301 301 303 302 303 305 300 300 302 299 299 301 300 303 307 304 300 298 297 298 302 305 303 304 310 308 301 300 298 297 297 297 297 299 299 299 298 299 305 306 304 308 310 306 306 305 299 296 298 304 304 299 298 298 298 297 297 295 296 297 297 297 296 296 296 296
300 302 300 301 301 299 301 301 301 302 303 309 324 328 315 308 308 308 307 302 299 302 302 299 304 306 307 307 301 299 300 299 300 302 303 304 303 302 300 298 297 295 300 306 301 299 305 303 299 298 296 296 297 295 295 297 298 298 297 302 304 300 300 302 300 300 301 301 304 303 300 301 300 297 296 297 296 296 297 297 297 298 298 297 297 297 296 295
300 301 302 301 300 300 301 300 302 301 302 322 344 326 311 306 303 305 305 300 300 303 301 303 307 308 310 311 307 302 298 297 302 304 303 300 298 299 299 298 296 295 298 303 300 300 305 303 299 299 297 295 296 295 295 297 299 300 301 302 297 294 300 301 295 293 295 301 306 302 300 300 297 297 296 295 296 296 296 297 297 298 299 298 298 297 295 294
300 301 302 300 300 301 300 300 302 299 305 333 341 311 301 299 297 300 302 300 299 300 304 308 305 303 308 310 308 307 302 297 302 308 304 299 300 299 298 298 296 293 295 298 299 297 301 305 302 298 298 296 293 295 297 295 296 302 303 297 293 294 298 300 300 300 301 306 306 300 299 300 298 299 298 296 296 297 297 297 296 298 298 298 298 296 295 294
301 302 302 300 300 300 300 302 299 300 315 334 327 308 300 297 296 298 299 298 298 300 307 309 302 299 305 308 305 303 303 304 306 308 303 301 303 298 296 298 296 294 294 296 299 296 296 305 304 297 298 298 295 297 300 297 295 298 299 294 295 300 301 300 303 305 304 305 305 301 299 297 298 300 300 298 299 299 298 297 296 297 297 296 296 295 294 293
301 305 306 301 300 300 301 301 297 308 333 333 318 308 300 298 298 297 297 296 296 300 305 304 300 301 302 304 304 300 302 305 304 304 302 301 303 297 294 296 295 296 296 294 299 296 293 302 307 300 295 296 299 300 301 302 299 299 299 296 299 301 299 298 298 299 303 305 304 303 303 303 302 301 301 300 300 300 299 298 298 298 297 295 294 293 293 292
299 307 309 300 300 301 300 300 303 321 334 316 307 305 298 298 299 296 297 297 295 299 302 301 301 303 302 300 300 299 302 304 302 302 302 300 300 297 295 295 295 297 296 295 298 296 294 299 305 305 299 297 300 298 298 300 299 301 302 300 301 299 297 297 295 293 299 305 305 302 305 308 303 299 301 300 299 299 298 298 299 298 296 294 293 293 292 292
300 310 309 300 300 300 300 307 308 311 313 303 301 302 298 299 299 296 297 295 294 295 297 299 301 301 303 302 299 298 303 306 303 302 301 299 299 298 295 293 294 294 295 298 299 296 296 297 301 306 305 301 299 294 292 295 294 298 300 298 299 298 298 302 300 295 294 298 300 300 303 305 300 296 298 298 297 297 297 297 297 296 295 293 293 292 292 291
306 310 304 300 300 299 307 317 301 295 305 304 299 300 299 300 298 297 296 294 294 295 295 298 300 300 302 301 299 300 303 306 304 301 300 298 299 299 295 292 293 292 294 297 297 293 295 298 301 306 303 296 294 290 290 293 293 294 295 295 296 297 299 304 303 299 295 292 293 295 299 304 299 295 296 296 296 295 295 295 295 294 293 292 292 292 291 291
313 309 301 299 300 301 310 317 303 298 304 299 293 295 297 298 299 297 296 296 296 296 297 299 298 298 300 297 298 301 301 301 301 299 299 299 298 296 294 292 293 293 294 295 295 293 296 299 302 308 305 296 292 290 289 290 291 294 294 294 294 295 298 300 298 297 297 295 296 297 301 307 301 296 296 297 296 296 295 294 293 293 293 292 292 291 291 291
310 304 303 301 298 305 313 314 313 308 301 296 296 296 294 295 297 297 297 299 298 296 299 300 296 297 298 296 298 299 297 299 300 297 297 299 298 294 293 293 293 295 294 295 295 294 296 300 302 308 312 308 303 300 297 295 294 296 296 293 292 293 294 295 293 293 296 297 297 300 306 309 302 297 298 298 297 297 296 294 293 293 292 292 292 291 291 291
305 301 306 304 297 303 310 309 314 312 302 300 301 297 296 297 295 296 297 298 297 296 298 298 296 297 296 295 297 296 294 297 299 297 296 298 297 294 293 293 294 295 294 293 294 295 295 297 300 307 312 311 310 309 306 301 297 297 295 292 292 293 295 296 295 297 300 296 293 299 306 305 299 297 298 296 295 295 294 294 293 293 293 292 292 291 291 291
306 305 309 310 302 300 300 296 302 309 305 307 305 297 299 300 296 294 295 295 295 295 297 297 296 297 296 295 299 300 296 295 296 297 298 299 299 295 292 293 294 295 295 293 294 295 296 296 296 303 308 307 307 305 300 298 297 297 296 295 295 293 293 295 297 299 299 295 294 298 299 299 297 296 296 295 295 295 294 294 293 293 293 292 292 291 291 290
306 306 304 307 309 308 304 299 302 307 306 308 306 298 300 301 297 295 293 293 295 296 296 296 295 298 299 298 301 303 299 296 296 297 297 297 297 294 291 292 293 294 295 295 293 294 298 298 295 297 301 301 300 299 295 294 296 296 296 297 296 293 292 294 298 298 295 295 300 299 294 295 297 296 295 295 295 294 294 293 293 293 292 291 291 291 290 290
301 302 297 297 304 306 304 303 303 305 305 306 304 299 301 302 299 299 296 293 295 295 296 297 297 299 300 298 300 302 299 299 299 297 297 296 295 296 294 292 292 293 294 294 293 295 298 298 294 294 299 299 297 294 293 293 294 294 294 295 295 294 293 295 295 294 293 296 300 298 294 295 296 294 294 295 294 294 293 293 292 292 291 291 290 290 291 290
297 300 295 293 300 302 299 298 300 305 306 307 305 301 302 304 301 299 296 295 297 295 295 298 299 299 300 299 302 305 302 301 300 298 300 299 296 297 298 296 293 291 292 294 293 293 296 298 295 292 297 300 295 291 290 291 293 294 294 294 294 293 293 294 294 293 293 294 295 295 294 294 293 293 293 293 293 293 292 292 292 291 292 292 291 291 291 291
301 304 300 299 301 300 299 298 303 311 307 304 307 302 300 304 302 298 295 296 299 296 294 299 300 300 300 300 302 304 301 300 299 298 299 300 298 298 299 299 296 292 293 295 293 290 292 297 296 292 297 301 296 291 292 292 293 294 294 292 292 293 293 292 292 292 292 293 292 292 293 292 292 293 293 293 293 292 292 293 292 292 292 292 292 291 291 291
298 297 299 307 307 300 301 301 303 311 307 304 307 302 299 302 301 299 297 295 298 298 297 300 302 299 298 298 301 300 298 298 300 298 298 298 297 297 296 297 298 298 297 294 293 293 292 295 296 295 300 304 297 294 295 292 291 293 295 295 292 292 293 292 292 292 293 294 293 292 294 295 294 295 296 295 294 293 294 294 293 294 293 292 292 291 291 291
297 294 295 309 308 298 300 302 302 308 305 301 303 301 301 303 300 299 300 297 295 297 297 299 302 301 300 300 300 298 297 298 297 295 294 294 295 295 294 294 296 299 299 296 294 292 293 297 298 295 301 306 300 297 296 294 299 304 301 300 297 293 294 293 292 292 292 292 294 296 298 298 296 296 296 295 295 295 295 295 294 293 292 291 291 291 291 291
Wind_Speed
12 12 14 16 17 16 15 15 14 13 12 12 14 15 15 15 14 15 19 23 22 16 14 17 16 11 9 12 12 5 17 31 37 46 38 32 40 37 33 29 21 18 15 8 9 8 10 12 10 14 14 9 6 3 4 5 5 5 4 5 4 1 1 2 3 3 4 3 1 3 1 5 3 1 3 2 7 6 6 6 6 8 9 7 7 9 9 8
11 12 14 16 17 16 16 15 14 13 12 12 14 14 16 17 16 17 21 24 21 16 17 21 18 15 5 12 17 13 5 22 33 37 34 38 40 35 31 27 20 16 15 14 13 11 10 7 9 15 10 4 5 5 5 5 6 5 4 5 2 3 2 2 4 3 3 5 4 1 1 3 3 2 2 2 3 3 6 6 5 7 7 7 7 9 10 9
12 13 16 16 16 16 16 15 14 12 11 11 13 14 16 18 16 18 22 25 23 15 18 23 21 22 11 12 19 15 2 14 23 26 35 42 37 34 31 25 19 13 13 15 15 15 12 6 11 14 6 5 5 4 6 5 4 3 4 6 1 4 2 1 2 4 5 7 7 4 2 4 2 0 2 5 3 4 4 3 3 4 4 5 5 9 11 9
13 15 16 15 15 16 16 15 13 11 11 11 12 12 14 17 16 16 20 26 26 16 17 25 25 23 17 11 13 11 3 9 11 22 38 40 35 33 30 25 19 11 8 10 11 12 10 9 16 13 6 6 6 4 7 6 3 3 3 5 3 4 4 2 0 4 4 4 6 4 3 5 3 3 2 4 4 3 1 2 2 6 7 6 5 7 9 10
14 15 14 14 15 16 16 14 13 12 12 12 12 11 12 15 14 13 16 22 27 20 14 21 28 26 22 13 6 6 3 6 9 28 39 35 33 31 29 27 20 11 6 6 8 13 13 12 12 9 7 6 7 6 6 6 3 5 4 4 3 3 5 1 2 3 3 3 5 4 4 3 1 4 4 2 3 1 1 2 3 5 6 6 5 6 8 10
14 14 13 14 15 15 15 15 15 15 14 13 12 11 11 12 12 11 13 18 25 25 14 11 21 28 27 22 17 11 7 4 13 31 35 31 31 29 28 29 24 18 13 13 17 21 16 12 12 7 4 6 8 8 4 6 4 6 4 5 5 3 3 2 4 4 3 6 5 2 3 2 3 4 4 5 4 2 3 5 6 6 6 7 7 7 8 9
14 13 13 13 15 14 15 16 16 16 16 16 13 11 9 9 11 10 11 14 20 27 21 7 6 12 12 16 27 26 12 2 19 30 30 27 27 28 26 26 26 25 22 22 20 15 11 13 13 5 5 7 6 7 7 10 10 9 6 5 6 6 5 4 4 5 6 7 3 1 4 5 5 4 3 6 4 4 5 8 9 9 9 9 8 8 8 7
14 13 13 14 14 13 15 16 17 18 19 20 17 12 8 8 10 10 10 11 14 23 27 18 3 4 2 6 12 17 8 8 24 29 26 24 24 27 26 23 26 29 29 27 16 7 6 10 8 3 7 7 2 3 5 11 12 9 6 2 4 5 4 4 6 7 7 6 3 6 8 5 3 3 3 4 3 5 6 9 10 10 9 8 7 7 7 6
15 13 13 13 13 12 13 14 16 19 20 22 21 13 7 7 9 11 10 10 11 15 23 27 19 5 5 8 6 8 8 14 23 26 23 22 22 25 27 25 25 27 28 28 23 15 7 5 4 5 8 4 3 4 4 6 6 4 5 3 4 4 3 5 6 6 5 3 3 8 7 3 2 2 3 1 2 4 5 8 7 7 7 5 4 3 4 4
15 13 12 12 10 10 10 12 15 18 19 22 21 11 6 7 9 11 10 10 11 13 14 18 26 25 22 15 11 8 9 17 23 24 20 20 21 23 28 29 26 27 27 25 25 18 10 11 10 9 10 4 5 6 6 8 5 2 6 6 7 5 4 5 4 5 3 2 3 6 3 3 3 2 2 3 2 3 5 6 6 5 4 3 3 1 2 2
14 13 12 10 9 9 9 12 15 17 20 21 18 8 4 6 10 11 9 9 11 15 15 9 13 27 34 26 13 6 11 19 25 25 19 18 22 23 27 29 28 30 30 24 21 14 8 12 11 8 6 3 6 9 8 7 6 4 6 7 7 6 7 8 5 6 4 2 4 6 3 5 4 3 1 4 2 5 5 4 5 5 3 3 2 1 1 3
14 13 12 10 9 9 10 12 13 16 22 23 16 7 5 5 9 11 10 9 9 12 16 17 12 9 18 23 12 5 14 21 25 25 21 17 20 22 23 26 29 31 31 25 20 19 14 12 13 9 3 3 5 7 5 3 5 4 4 6 6 7 9 11 7 6 4 1 2 2 3 6 5 4 5 1 4 5 5 4 4 4 3 4 4 3 2 3
14 13 12 12 11 11 11 11 11 14 23 28 20 8 6 6 7 12 13 9 7 8 10 16 18 12 9 10 8 14 19 23 26 23 21 18 16 19 21 23 26 29 32 28 21 25 26 26 27 14 3 6 4 3 5 4 4 2 5 5 3 6 7 9 8 8 6 3 2 1 2 5 6 6 5 4 4 6 5 2 3 4 4 4 4 4 4 5
15 14 12 12 12 13 12 10 9 10 18 30 30 16 5 5 4 9 14 13 9 8 9 8 9 14 14 4 5 20 22 23 28 26 24 21 14 14 19 21 23 24 28 27 24 26 27 31 31 13 4 6 3 3 5 5 5 2 4 3 3 4 3 6 7 11 8 3 4 3 2 2 6 7 6 5 4 6 3 2 4 5 5 4 4 4 5 6
16 15 13 13 13 13 12 10 7 5 9 20 32 30 12 3 2 3 9 13 14 11 10 11 6 7 9 4 5 19 24 26 31 30 25 21 17 11 11 16 19 20 22 22 21 22 27 32 25 7 3 5 5 6 4 4 4 3 3 3 4 3 2 6 5 10 7 4 6 5 2 2 3 6 7 3 4 5 3 3 5 5 5 5 5 4 4 7
16 16 14 13 13 14 13 10 7 3 2 5 18 32 28 11 2 2 2 6 13 13 10 12 9 8 7 1 7 16 22 25 28 29 23 18 20 14 7 8 12 13 17 20 19 18 23 25 13 4 4 6 5 5 4 4 4 4 4 2 3 3 3 4 3 9 7 3 7 6 2 2 4 7 8 2 3 3 2 4 6 5 5 5 5 5 4 6
17 17 15 13 13 14 13 11 9 6 2 4 1 13 28 28 9 3 2 0 3 7 12 15 8 8 7 6 7 10 15 20 23 28 25 15 17 19 12 6 5 6 8 15 22 17 15 12 4 2 5 5 4 3 4 5 4 4 4 2 1 2 2 3 3 8 10 6 7 7 4 3 7 8 8 4 2 2 1 4 5 5 5 5 5 5 5 5
17 17 16 14 13 14 15 12 11 10 2 5 7 6 9 25 25 17 11 6 2 2 9 19 13 6 6 10 7 10 16 19 20 27 27 14 12 19 19 12 6 6 5 8 15 12 7 5 3 2 5 7 7 6 5 2 1 1 2 2 2 3 2 4 4 5 8 8 8 8 6 6 8 7 7 7 4 2 3 4 4 5 5 5 5 5 5 5
17 17 17 15 12 14 16 13 13 13 5 4 5 4 1 8 20 30 31 22 12 5 3 10 9 5 2 7 10 15 14 13 18 27 31 19 10 14 21 17 9 7 7 4 8 8 4 4 4 4 6 8 6 4 1 1 3 4 3 4 2 3 1 2 2 3 4 6 9 8 5 6 8 8 7 7 5 5 5 5 4 5 5 5 5 5 6 6
17 17 17 15 12 13 16 14 14 13 7 2 3 2 2 2 6 12 20 20 11 6 4 2 2 4 2 4 12 18 10 8 17 28 36 25 10 11 18 14 8 9 7 2 4 6 4 8 7 4 4 7 6 5 4 2 2 5 4 4 3 2 2 3 2 5 2 4 6 5 3 7 8 8 7 6 5 7 7 7 6 6 6 6 6 6 7 7
17 17 17 16 11 12 15 13 14 14 9 2 4 5 3 2 6 2 3 9 6 5 6 1 1 3 2 3 13 17 5 6 17 29 37 25 9 9 10 9 8 8 6 2 2 5 6 10 5 4 5 8 7 5 2 2 3 4 4 3 3 3 2 3 2 6 4 5 4 6 5 8 7 6 7 6 6 6 6 5 6 7 6 5 6 7 7 7
17 16 17 15 10 11 14 13 14 12 9 6 9 11 6 5 9 8 4 5 4 5 4 2 4 3 2 2 13 13 2 6 16 25 33 24 13 8 4 7 12 6 6 4 2 4 8 8 6 7 4 5 4 3 3 5 5 4 3 3 2 3 2 3 2 5 6 5 2 4 6 6 5 5 6 6 4 3 5 4 4 5 6 6 6 7 7 7
18 16 16 15 9 8 12 13 12 9 11 15 16 13 8 9 10 7 4 5 2 3 2 3 4 4 4 5 12 12 7 8 6 15 26 18 8 5 2 7 11 7 8 9 6 6 6 4 7 5 1 1 5 7 6 5 4 4 4 3 1 2 2 1 2 6 6 3 3 2 5 4 4 5 5 5 3 3 5 5 4 3 4 5 5 5 5 7
18 16 16 15 9 6 9 11 11 12 16 19 20 13 9 9 7 4 3 4 2 1 1 1 2 3 3 4 12 8 5 6 0 9 21 12 3 3 3 4 6 7 8 10 12 11 5 3 4 3 3 4 4 7 8 5 3 3 2 3 2 1 1 3 3 5 4 3 3 4 4 3 3 5 5 5 4 4 4 5 4 4 5 5 5 5 5 5
18 17 16 16 11 5 5 8 10 12 14 14 14 11 8 5 3 3 4 4 3 2 1 1 1 4 3 6 13 4 4 4 1 7 15 9 3 1 3 2 4 5 1 5 11 10 5 2 1 3 5 6 6 6 6 3 2 3 1 2 3 2 1 4 4 3 3 3 2 3 3 4 3 3 4 5 5 5 5 5 6 6 6 6 6 6 6 6
18 17 16 16 13 6 2 5 8 7 7 8 8 6 5 4 3 2 3 5 4 3 4 3 1 7 6 8 11 1 4 4 2 10 16 11 5 2 4 3 2 3 3 4 5 4 3 3 3 4 4 7 6 3 2 1 2 2 1 1 2 1 2 3 2 1 3 1 2 2 3 3 3 1 3 4 4 6 6 5 6 6 5 5 5 5 6 6
16 17 16 15 14 10 3 2 5 5 4 3 4 4 4 3 3 2 2 5 4 2 4 4 2 7 6 9 11 2 4 6 3 11 17 13 8 2 5 4 2 2 1 3 4 2 2 5 6 6 5 6 5 2 1 2 3 1 1 0 1 2 4 3 3 3 1 1 1 3 3 1 2 3 4 3 3 5 6 6 6 5 6 6 5 6 5 5
15 17 17 15 14 13 8 4 3 4 3 1 1 2 2 1 0 1 4 4 3 1 2 3 3 5 5 9 13 7 2 6 2 8 14 13 10 4 6 5 3 2 1 4 3 1 2 5 6 6 6 5 2 3 3 2 1 1 1 0 1 3 4 3 4 3 1 2 2 5 4 2 3 4 3 2 1 4 5 5 6 6 6 6 6 7 6 6
14 16 17 14 12 11 10 7 6 4 3 1 0 1 0 1 1 2 5 3 1 1 0 2 3 5 6 8 10 6 4 5 3 7 13 11 11 7 6 2 4 6 5 6 5 1 1 1 0 3 5 3 3 6 4 3 2 2 3 3 2 3 2 3 4 3 2 4 1 5 5 2 3 4 1 1 1 4 4 5 5 6 6 6 6 7 7 6
12 14 16 14 11 9 7 8 9 5 2 1 0 1 1 2 4 5 3 1 1 1 1 3 3 4 7 6 6 7 6 5 3 6 7 5 9 9 4 1 3 7 6 7 6 1 2 1 2 3 2 3 4 5 3 4 3 0 5 3 3 3 3 3 2 3 4 3 2 4 3 3 1 4 3 2 3 4 3 3 5 5 6 6 6 6 6 6
11 13 16 15 14 12 6 6 9 5 3 2 0 0 1 2 5 6 1 1 1 2 2 5 3 4 7 5 4 6 5 5 6 7 6 5 8 8 5 4 4 4 5 6 5 3 4 4 1 1 1 2 2 2 1 2 3 2 4 3 2 3 3 3 5 4 4 2 4 4 2 4 1 4 4 4 4 4 4 3 5 5 6 6 6 6 6 6
9 11 15 16 16 14 8 6 7 5 4 1 2 3 4 2 3 3 1 3 2 2 2 3 3 4 5 4 5 5 4 5 6 6 5 5 6 6 5 4 2 3 5 4 4 4 3 3 4 3 2 4 5 2 3 4 5 4 3 5 4 2 4 3 3 3 0 3 3 1 2 2 3 5 4 4 6 5 5 6 6 6 6 6 7 7 6 6
7 7 14 17 16 15 11 8 7 4 2 2 2 4 7 4 1 1 2 3 1 2 1 1 2 2 3 4 5 5 3 3 4 5 2 2 4 3 3 4 3 2 2 2 3 4 3 4 6 5 3 5 6 3 3 4 6 7 4 4 3 2 4 3 3 2 2 4 2 2 2 1 4 3 4 6 6 5 5 6 6 6 6 7 7 6 6 7
5 5 11 16 18 17 13 10 7 3 1 2 3 4 5 3 1 1 1 2 1 2 1 1 2 3 4 4 2 3 3 3 3 4 3 3 5 4 3 6 6 3 2 3 2 2 3 3 5 5 3 4 5 3 2 0 3 3 1 4 3 3 3 2 3 1 3 5 4 4 1 2 2 2 4 6 5 4 4 4 5 6 6 6 6 6 6 7
4 3 8 15 19 19 15 11 6 2 1 3 6 5 3 1 2 2 0 3 1 1 1 1 3 4 4 3 2 1 2 1 3 4 5 4 3 2 3 4 5 4 3 3 1 1 3 2 4 3 2 3 4 1 2 3 1 1 1 4 2 2 3 1 2 4 2 2 4 3 1 3 3 2 2 3 4 5 4 4 4 5 6 4 5 6 6 6
4 1 5 13 19 20 17 12 6 2 2 4 7 5 2 2 1 2 1 1 0 1 0 2 3 5 3 4 3 3 0 1 3 4 4 3 0 1 1 2 3 4 3 3 1 1 2 2 4 4 3 3 2 2 1 2 1 1 2 2 1 3 5 4 0 0 3 2 3 2 2 4 3 1 3 4 5 6 6 5 5 6 6 5 5 6 6 7
4 1 3 12 20 20 16 12 6 1 3 7 7 2 2 1 1 1 1 1 1 1 4 2 2 2 1 2 3 4 3 1 2 3 2 2 1 2 2 2 1 2 2 2 2 0 1 2 4 2 2 2 1 1 2 2 1 2 2 1 1 2 4 4 1 3 5 1 3 3 3 4 3 1 4 4 5 7 7 6 6 6 6 6 7 7 7 8
3 1 1 11 21 20 15 11 5 2 4 7 5 2 1 1 0 1 1 0 1 2 5 2 0 0 2 1 2 5 4 3 3 4 2 1 1 0 1 2 0 2 2 1 2 1 1 1 5 1 0 4 3 2 3 4 3 4 3 2 2 3 1 2 2 1 3 2 4 5 4 3 2 2 3 3 5 7 7 6 5 6 6 6 7 8 8 8
2 1 1 11 21 19 13 9 3 3 6 6 3 2 1 1 1 1 1 1 0 2 3 2 1 2 2 2 0 3 3 3 2 2 2 1 1 1 0 1 1 1 2 2 2 0 1 1 3 3 2 4 4 3 0 3 5 4 3 2 2 3 2 1 2 1 0 1 3 5 5 3 4 4 3 5 6 6 6 5 5 6 7 7 7 7 8 8
2 2 1 11 22 16 9 8 6 7 6 3 3 2 1 0 1 2 2 1 0 1 1 3 2 2 1 1 0 1 2 3 2 2 1 1 1 1 1 1 1 3 4 3 3 0 1 2 3 5 3 2 1 2 1 1 2 3 3 3 3 2 1 0 1 2 2 1 1 2 4 5 5 4 5 6 6 5 6 6 5 6 7 8 8 8 8 7
3 3 2 12 22 13 6 9 8 5 4 3 2 1 1 2 2 1 3 1 1 0 1 3 3 2 2 1 0 0 1 2 2 2 1 0 1 1 1 2 0 3 3 3 4 1 1 2 1 4 3 1 1 1 1 1 1 1 1 2 1 1 3 2 2 2 1 2 3 2 3 8 5 3 4 6 5 5 5 5 5 7 8 9 9 9 8 8
5 3 3 14 20 9 5 8 4 2 4 2 1 0 1 2 2 0 2 2 2 1 1 3 3 2 3 2 1 1 2 2 1 1 0 1 1 1 1 3 0 1 1 1 1 1 2 3 1 3 2 1 3 2 1 1 2 2 1 1 3 2 4 4 2 3 1 2 1 2 1 7 5 3 4 5 5 5 5 5 5 7 8 9 10 9 9 8
3 1 2 15 17 4 7 6 2 4 3 1 1 1 1 2 2 1 1 2 2 1 2 2 1 1 1 2 2 2 1 1 1 1 1 2 1 1 1 3 1 1 2 1 1 1 1 3 2 3 3 3 4 3 2 3 4 2 1 1 3 2 3 5 4 2 1 1 1 2 2 6 6 3 4 4 4 5 5 5 6 7 8 9 10 9 8 8
2 2 2 14 13 1 5 3 1 2 0 2 1 2 2 1 2 1 1 1 1 1 2 1 1 1 1 2 3 2 1 0 1 1 1 1 1 2 2 3 2 1 1 1 1 1 1 1 2 3 5 6 6 5 5 4 1 1 2 1 2 3 6 4 2 2 1 4 5 3 4 7 5 2 3 4 4 5 7 6 6 7 8 8 8 8 7 7
2 0 3 10 14 9 5 3 5 5 2 2 4 2 2 2 1 1 1 1 0 1 2 1 0 2 3 2 3 2 1 1 1 1 1 0 2 0 2 4 2 2 1 1 1 1 1 1 2 3 2 2 3 4 4 3 1 1 1 2 2 4 6 4 1 3 2 3 5 4 5 6 6 5 5 6 5 7 9 7 6 7 7 8 8 7 7 7
2 1 2 6 11 10 4 1 4 6 4 4 4 1 2 2 1 2 1 1 0 1 2 1 1 2 3 2 3 3 3 2 2 2 2 1 3 1 1 3 2 1 1 1 3 3 2 0 1 5 5 4 4 5 4 0 1 3 3 3 4 4 5 5 4 2 4 2 3 7 6 7 13 11 7 8 7 8 10 9 9 8 8 9 9 8 8 8
2 2 1 2 4 5 4 3 4 4 4 4 3 1 2 2 1 1 1 0 0 1 2 2 1 1 1 2 3 2 1 3 3 2 2 2 3 2 2 0 1 2 2 1 3 3 4 1 1 3 5 6 6 7 3 1 3 6 5 4 5 5 5 6 4 5 4 3 4 7 4 5 13 12 9 10 10 9 9 10 9 9 9 9 9 9 9 9
1 2 1 0 1 2 3 2 3 5 4 3 3 2 3 3 2 1 1 1 1 1 1 1 1 1 2 3 3 2 1 2 2 0 1 1 2 3 3 0 0 4 3 2 3 2 5 1 2 2 4 8 8 7 4 3 5 5 5 7 6 7 8 9 8 7 7 5 8 5 2 6 13 14 13 13 10 9 10 10 9 8 9 9 9 8 9 9
2 3 0 2 2 2 1 1 3 6 6 4 3 2 3 5 4 3 1 2 2 2 1 0 2 1 2 2 3 3 2 1 1 2 2 2 1 1 1 0 0 3 3 3 3 1 4 1 1 2 4 8 7 7 4 3 3 5 7 9 8 8 11 11 10 7 8 11 14 11 10 14 16 15 15 14 10 8 8 8 7 9 10 9 8 8 9 9
2 3 1 3 4 2 1 2 3 5 4 3 2 1 3 6 5 2 1 2 1 1 1 1 2 2 3 2 4 2 3 4 2 1 4 4 0 2 2 2 2 2 3 2 2 2 0 2 1 3 3 7 5 5 4 2 3 7 10 8 7 8 9 9 8 5 6 11 14 12 12 15 15 12 11 11 8 6 7 8 8 8 8 7 8 9 10 10
3 3 4 5 4 2 2 2 2 4 2 1 2 2 3 5 6 4 2 1 1 2 3 4 5 4 3 2 2 0 3 5 4 1 5 4 0 1 1 0 3 3 1 1 1 2 1 1 1 5 4 5 4 5 7 5 4 7 11 8 9 7 6 7 6 5 7 7 6 5 7 10 9 5 5 7 7 7 9 9 8 7 7 7 9 10 10 10
4 3 2 5 3 2 1 1 2 3 2 0 2 3 2 3 4 3 3 1 1 1 3 5 7 4 3 1 3 3 3 5 5 2 3 4 4 4 3 3 5 4 3 3 1 1 2 2 1 3 2 5 6 7 9 8 4 4 6 5 9 7 5 5 4 7 9 6 3 4 7 7 5 2 4 8 9 9 10 8 6 6 7 8 10 10 10 10
Wind_Direction
38 34 24 17 14 12 14 15 15 15 17 16 15 15 16 17 21 25 21 12 9 17 17 351 336 319 259 215 214 214 34 29 24 27 27 3 355 3 7 8 3 4 10 44 75 61 59 48 40 58 59 47 24 348 30 37 27 53 75 75 94 122 128 174 198 175 129 142 211 333 22 122 121 117 166 95 47 69 71 56 61 56 63 77 99 117 116 118
34 25 15 11 10 11 12 12 11 12 15 15 17 23 27 31 36 34 25 16 15 23 13 359 3 2 307 195 200 207 40 23 23 25 11 358 3 8 11 15 13 11 23 52 52 50 65 13 15 56 50 24 9 1 23 18 30 63 102 77 105 191 175 185 200 192 131 142 154 89 71 109 119 168 144 92 24 54 80 68 72 68 72 85 97 113 115 115
22 13 8 9 11 12 10 10 11 13 17 18 20 28 32 35 39 35 29 24 22 25 18 19 29 27 41 166 188 194 243 10 24 14 354 356 5 8 16 22 19 19 36 54 50 57 71 22 43 61 51 45 16 6 34 15 29 56 90 77 169 193 147 224 191 169 153 148 140 117 108 83 55 248 107 122 103 56 91 117 116 108 113 117 115 117 117 112
10 6 7 12 14 12 10 12 17 20 22 19 18 22 27 30 36 36 33 30 27 27 25 35 45 39 53 121 165 180 291 17 26 350 347 356 5 11 21 27 28 30 34 56 53 53 57 41 54 59 63 49 352 25 40 360 35 52 64 103 174 167 103 17 62 125 129 126 124 128 109 76 31 14 65 135 105 48 256 243 150 146 145 139 136 121 112 107
8 10 14 17 16 12 14 23 29 30 25 18 14 12 16 22 30 34 34 34 31 28 28 46 59 62 63 72 132 202 321 41 349 339 348 357 7 14 24 32 42 52 45 66 46 44 45 39 54 52 56 43 355 33 24 344 62 70 27 71 103 120 105 41 339 66 77 79 86 88 76 76 34 27 24 50 83 51 301 20 78 123 133 128 123 112 99 94
14 16 20 21 17 17 26 37 36 31 22 12 9 5 7 13 21 29 32 38 35 30 28 50 75 83 75 62 66 73 74 83 324 337 349 360 12 17 27 35 48 66 76 76 59 55 48 38 57 49 45 54 30 40 13 345 55 93 34 18 36 55 89 27 353 16 43 75 61 52 76 63 56 48 21 39 66 26 22 67 84 93 110 116 109 104 95 88
20 20 24 24 21 29 41 46 40 33 27 16 7 357 359 8 15 21 26 36 37 34 33 37 102 104 79 52 55 59 79 48 333 340 353 9 18 19 31 38 49 64 68 60 55 62 52 50 65 66 71 69 42 44 52 39 49 83 74 16 25 44 50 20 28 37 51 68 30 32 68 29 46 75 34 36 39 8 37 75 86 92 104 111 104 99 97 96
23 25 27 28 27 41 52 51 42 32 26 17 10 357 355 10 17 16 19 27 34 38 39 39 47 222 330 28 50 53 62 343 339 348 4 20 25 25 33 40 48 58 58 50 47 71 63 59 71 105 73 60 52 40 45 54 46 60 84 34 25 45 40 37 58 52 55 65 38 61 58 26 53 103 66 36 4 6 53 78 82 92 94 97 96 94 102 103
26 27 29 31 34 47 51 45 31 21 15 7 3 1 5 18 26 23 23 30 36 45 46 47 52 85 101 80 81 61 17 339 344 359 16 28 32 35 38 40 47 55 56 48 48 59 66 70 68 94 95 85 81 22 344 69 51 36 90 84 62 62 16 36 57 41 45 48 38 65 58 32 44 64 65 342 305 11 64 71 63 83 80 69 72 89 114 112
27 27 31 33 35 38 36 27 15 11 8 360 357 4 29 35 36 27 30 47 48 49 49 53 56 66 83 81 72 63 349 343 3 16 28 35 36 42 43 46 52 57 58 49 46 54 74 99 104 109 107 90 65 28 10 81 106 111 105 99 84 83 28 31 57 19 8 6 42 96 114 282 296 31 97 237 253 63 81 60 31 66 65 18 29 61 152 173
26 27 30 29 26 18 11 6 3 10 11 5 2 15 71 54 39 29 36 56 61 59 52 53 56 59 66 68 72 56 350 357 14 25 38 42 42 47 47 50 57 64 66 54 46 54 89 119 126 113 93 72 71 58 47 85 120 109 103 93 52 54 43 25 26 2 357 32 42 108 132 305 329 28 224 227 144 90 98 71 22 45 30 350 4 341 215 213
23 25 26 22 13 359 352 355 6 22 23 19 15 28 99 79 46 41 47 59 67 67 58 54 54 55 59 61 67 22 5 11 18 30 43 47 50 53 53 57 62 68 73 66 51 60 81 107 100 81 73 126 93 76 89 94 100 84 72 84 17 17 41 15 355 344 4 59 330 87 48 343 352 351 312 298 98 83 86 80 22 15 349 332 328 317 271 234
20 21 20 18 9 359 354 357 20 39 33 32 31 38 109 102 62 52 49 54 63 61 63 62 60 61 63 65 43 17 18 19 22 35 45 49 59 63 61 66 68 69 74 73 64 67 78 84 85 86 77 95 103 110 114 52 58 62 33 77 19 9 28 5 357 352 12 65 324 35 47 329 324 333 346 24 80 88 79 65 356 343 329 324 317 315 290 261
19 17 15 15 10 6 2 3 31 52 41 40 40 44 104 130 81 60 49 47 54 49 48 61 71 61 58 94 32 19 19 24 29 31 30 36 57 73 70 70 72 72 72 73 70 70 76 76 76 83 64 68 99 82 64 23 34 39 5 34 42 45 344 334 10 14 15 22 6 56 123 318 331 349 2 14 65 108 117 282 324 330 317 315 308 309 291 269
17 15 12 12 9 8 7 6 23 59 52 43 44 44 51 149 154 76 51 48 53 51 47 53 78 80 63 91 27 12 16 25 24 18 15 23 32 41 57 67 70 69 67 65 65 66 66 68 65 59 18 24 50 59 35 14 26 31 35 360 5 66 313 317 10 30 18 300 356 49 110 317 344 357 342 347 64 107 152 268 309 320 306 310 306 300 293 281
14 13 10 8 7 7 5 4 5 26 71 46 47 44 42 47 206 212 50 52 53 49 52 48 54 92 91 23 343 2 14 15 8 9 12 18 21 12 9 61 67 66 66 53 52 56 53 62 68 51 41 19 31 60 49 35 8 8 68 84 344 20 5 334 356 23 14 315 357 31 92 307 307 337 329 329 88 102 173 275 304 318 308 313 310 307 306 294
11 10 8 5 5 4 0 3 1 349 292 225 294 37 42 45 49 199 222 241 44 38 45 32 28 98 72 2 351 353 353 353 354 7 14 13 21 23 26 54 36 32 63 39 36 39 32 44 74 68 59 39 25 53 61 35 350 351 34 91 350 345 20 357 335 357 10 38 21 18 62 6 314 326 334 342 67 126 284 310 320 331 322 323 320 316 309 299
9 7 7 3 1 2 1 1 2 1 337 222 242 264 36 47 56 69 63 64 53 339 31 19 18 97 35 360 358 322 319 336 354 7 13 16 20 27 34 40 6 358 37 22 21 23 14 33 77 85 40 26 21 35 65 58 354 16 20 69 5 330 49 19 344 338 4 37 34 25 35 3 339 348 356 348 11 55 340 332 336 333 323 316 310 300 293 291
7 6 5 2 360 1 2 2 6 12 18 216 232 236 222 41 53 55 49 54 58 38 38 359 10 106 4 332 328 323 319 340 4 10 13 13 3 20 30 30 27 38 45 13 8 12 18 44 46 46 15 357 356 2 65 161 131 135 134 109 68 347 345 311 295 312 5 42 31 29 20 360 1 3 356 338 6 40 360 350 352 338 331 314 305 290 283 277
7 5 5 3 2 2 3 8 8 13 31 131 185 127 110 33 36 35 30 45 63 62 92 314 357 92 18 313 328 343 347 3 19 14 10 7 352 17 22 13 26 51 45 8 359 359 42 63 44 21 325 298 303 303 253 213 130 121 111 97 83 43 318 280 292 323 358 81 18 6 22 19 16 360 345 333 8 31 2 359 360 348 345 329 320 309 296 282
8 6 6 5 6 8 7 11 12 16 30 95 143 98 138 115 75 150 349 44 57 47 70 66 64 74 355 315 345 356 356 7 18 11 10 12 10 22 8 359 38 40 6 342 354 344 46 63 27 322 279 267 290 297 205 126 93 100 105 106 68 55 312 273 253 322 356 88 10 351 40 32 16 1 354 356 23 18 346 356 358 345 345 338 332 323 311 299
11 7 8 9 12 15 13 18 19 23 46 90 103 88 102 126 109 139 141 84 44 19 59 61 57 45 311 20 4 0 1 12 11 4 7 14 28 40 355 26 59 48 348 3 26 20 52 50 338 313 277 251 315 2 79 82 80 70 74 110 59 10 325 288 264 331 4 83 28 2 56 39 355 354 4 10 26 353 322 329 326 336 353 354 350 339 333 333
13 11 11 12 17 23 24 31 31 41 72 84 87 87 96 103 116 133 98 97 87 356 22 35 56 24 359 33 7 8 44 33 5 346 356 7 33 54 60 51 67 65 34 44 62 69 67 5 319 324 306 141 29 25 43 55 61 56 52 87 70 336 20 310 299 343 353 71 119 89 67 33 345 354 360 359 351 311 318 308 289 335 7 346 335 333 339 347
15 15 15 14 18 28 31 39 49 60 73 80 79 84 105 107 114 119 77 89 78 356 29 55 127 63 34 12 356 10 68 46 94 333 352 12 58 40 69 84 76 60 52 64 74 85 91 291 302 9 45 78 60 33 37 39 28 22 51 113 156 63 63 240 283 341 345 32 87 98 51 350 352 10 341 332 343 335 338 333 331 356 360 341 337 339 341 339
15 17 18 18 19 22 34 39 46 60 70 75 77 81 95 107 127 101 87 72 23 326 5 54 130 37 21 354 354 5 120 45 79 338 351 19 37 35 76 99 82 60 74 86 77 86 83 313 334 39 32 49 64 43 24 20 25 350 302 138 130 126 224 258 291 359 40 30 9 72 53 311 321 17 313 311 348 344 343 2 356 338 339 353 355 347 344 341
16 18 19 21 22 21 40 39 32 52 69 62 71 84 78 95 125 95 92 68 23 319 357 10 41 9 350 348 345 340 86 10 321 6 8 15 3 124 84 353 54 94 181 135 82 90 57 6 35 61 55 44 49 55 4 50 73 16 264 119 71 125 202 232 221 113 98 76 335 53 98 269 302 355 266 300 343 331 329 347 339 321 328 342 337 333 336 339
18 17 19 22 25 31 58 64 24 42 67 59 76 80 66 90 99 60 66 46 11 325 357 337 347 8 350 349 352 82 68 324 313 22 14 10 354 55 72 17 27 35 211 117 57 47 27 5 18 40 54 48 38 11 318 122 100 32 239 223 308 169 174 187 127 102 115 142 22 26 94 167 279 241 255 297 319 320 328 327 323 324 330 328 319 318 317 313
20 17 19 21 25 38 56 65 44 54 72 114 107 55 39 84 97 41 81 65 351 7 26 311 337 8 347 359 16 69 64 326 36 5 352 13 14 36 76 66 98 37 328 114 97 259 4 13 13 28 34 35 22 300 276 158 120 277 216 117 197 150 159 158 102 95 70 79 24 347 36 85 275 268 309 350 272 298 309 298 304 316 319 320 316 313 311 305
22 20 20 20 25 38 49 55 60 70 72 121 117 17 329 59 53 60 78 101 336 21 149 318 349 348 350 8 18 36 11 10 69 330 339 20 23 36 83 99 113 77 41 82 110 170 38 39 140 77 39 354 280 277 248 169 297 282 117 78 62 68 78 88 85 103 53 54 42 322 13 60 284 282 303 3 240 262 275 279 286 290 296 300 297 305 312 312
21 23 21 22 28 30 37 42 43 50 42 13 326 273 187 65 65 65 52 175 20 340 272 15 6 342 10 28 8 8 20 15 348 337 352 18 9 26 76 236 88 81 43 50 73 51 332 324 183 102 48 275 262 280 227 194 268 31 94 59 38 22 26 48 34 86 63 12 264 291 3 89 307 284 221 208 224 207 212 278 291 292 301 298 291 301 309 309
21 25 22 25 30 28 28 22 17 15 7 14 164 93 94 39 63 90 94 265 38 329 1 25 5 9 29 47 15 1 19 359 341 6 17 7 6 18 28 5 28 54 27 27 33 358 5 20 352 287 294 308 332 317 268 258 295 87 102 76 64 333 359 26 350 37 66 307 253 265 333 109 166 272 241 235 251 210 180 226 265 281 293 295 296 303 302 304
18 25 25 28 32 31 35 15 2 1 1 44 125 67 83 37 22 96 301 332 360 326 18 16 347 20 20 36 32 355 348 355 3 35 29 13 29 29 26 21 1 16 11 358 357 359 14 1 321 303 306 18 24 357 342 344 356 35 60 57 61 342 6 21 329 9 72 247 221 257 360 107 219 250 232 227 244 237 208 213 230 250 273 286 294 301 303 307
12 21 24 26 28 29 31 20 7 6 3 102 92 47 77 75 11 202 293 338 9 322 35 21 345 27 9 24 23 343 356 1 357 34 39 44 51 28 18 29 24 29 12 358 5 6 350 307 339 1 349 14 38 46 6 342 359 18 41 63 71 67 36 340 294 342 301 272 280 342 351 278 281 274 212 209 227 234 226 230 239 242 255 273 283 290 297 300
2 15 18 20 23 22 21 16 11 18 27 99 77 47 65 55 246 150 318 272 248 336 37 41 354 23 36 51 356 310 45 30 352 29 19 33 46 7 348 10 19 43 80 53 44 42 34 319 348 18 340 356 39 65 72 86 7 4 125 113 100 114 87 295 255 238 288 290 303 326 352 201 276 285 216 221 245 261 254 254 264 256 251 264 283 291 293 297
346 360 12 14 16 14 13 11 10 31 124 87 64 63 86 258 239 136 206 253 246 354 345 4 56 47 12 2 333 301 125 9 12 45 21 30 60 4 347 338 359 37 75 55 18 44 57 293 304 335 307 12 28 354 112 112 62 307 146 83 60 129 112 127 186 176 207 310 306 304 224 214 228 255 269 285 294 300 300 305 314 290 279 298 305 298 299 297
338 311 10 13 10 7 7 7 8 46 128 88 62 58 129 203 215 143 178 248 206 139 110 347 46 61 357 321 342 358 97 317 32 50 18 25 99 328 356 280 333 36 75 86 51 9 44 300 303 331 350 34 12 300 24 82 344 355 56 54 244 154 115 110 196 31 70 56 292 298 284 293 324 333 334 344 314 304 303 302 309 293 295 315 302 292 296 291
342 283 12 11 5 2 1 1 7 71 93 80 78 91 176 191 184 186 242 308 249 118 95 41 1 50 357 317 325 331 346 354 38 54 28 16 357 338 343 295 321 49 72 110 118 110 98 286 304 360 36 355 297 283 357 15 92 68 61 204 197 89 89 102 80 357 34 51 277 327 312 299 337 334 326 338 301 287 278 274 291 297 299 300 288 286 288 285
346 192 53 8 1 359 357 358 3 107 75 67 82 132 147 68 58 215 273 284 248 59 82 119 181 139 198 188 322 316 347 3 13 49 70 21 35 9 320 313 27 67 21 65 91 61 89 307 305 326 161 314 342 40 339 335 35 81 115 161 103 75 21 28 64 13 9 335 287 315 314 269 218 227 293 299 259 263 272 281 293 287 287 289 286 289 292 294
14 71 42 0 358 358 358 356 5 76 64 71 107 155 130 70 323 265 275 291 190 75 86 167 172 82 164 160 282 308 6 38 32 64 98 49 49 123 102 354 312 12 12 65 111 236 63 76 294 289 274 308 351 48 291 312 357 24 55 24 27 109 151 353 50 139 215 306 289 319 333 285 231 213 215 236 242 250 267 283 276 265 278 288 284 289 295 298
53 45 265 353 357 355 360 16 39 55 58 97 156 160 92 140 251 292 304 323 85 88 113 179 165 97 136 202 278 328 28 58 73 73 76 74 74 359 28 58 311 323 346 44 88 50 17 68 279 300 343 335 340 37 165 188 354 359 31 22 360 43 95 218 43 101 132 149 215 324 320 277 248 206 195 224 243 244 242 247 256 268 284 291 289 290 293 293
72 40 271 349 355 346 8 38 42 51 75 109 131 134 110 138 158 320 316 338 81 205 158 145 137 121 141 141 77 166 57 54 62 69 77 117 95 21 7 70 117 309 339 33 54 33 30 77 280 299 352 357 244 311 311 213 173 186 92 93 138 75 69 73 329 325 91 119 165 160 285 277 261 201 208 229 242 250 240 229 256 282 289 293 295 291 290 292
74 52 278 347 351 347 58 53 34 51 92 111 68 130 96 96 122 58 315 360 61 61 61 88 99 105 130 131 111 158 108 71 50 66 127 248 150 155 341 13 28 232 65 57 345 322 121 93 49 269 279 289 273 293 328 5 93 104 39 104 130 110 103 118 246 271 37 30 107 120 272 272 261 206 219 239 242 252 244 222 253 283 288 290 292 290 291 289
88 180 295 352 347 352 83 56 355 29 52 235 290 351 13 59 112 137 347 14 38 72 43 43 61 73 136 166 118 131 134 123 138 101 206 254 268 165 342 350 312 181 82 121 248 313 76 77 38 298 295 323 320 320 349 23 57 78 324 68 116 111 118 139 171 183 185 258 129 72 295 269 270 241 220 238 250 268 265 237 249 277 287 290 290 291 292 289
115 210 296 360 357 84 109 84 138 75 344 249 39 25 354 40 77 62 66 34 29 123 99 102 247 59 126 131 97 121 234 93 105 50 148 188 217 133 75 360 341 80 61 163 196 273 326 76 60 11 351 346 345 347 344 352 30 195 243 119 120 101 98 117 133 80 309 228 156 132 250 256 270 284 267 270 281 291 284 266 260 270 281 289 289 291 294 296
73 217 271 2 26 67 107 157 145 131 157 120 81 47 18 45 26 351 140 112 40 148 120 109 221 89 105 96 73 73 360 35 98 21 66 140 277 83 45 351 360 91 123 205 155 158 166 142 111 95 60 334 315 306 297 300 288 245 192 157 165 128 124 149 118 73 283 236 155 168 232 262 281 288 293 293 295 297 294 294 293 283 284 291 295 301 307 310
79 64 296 346 26 56 75 138 105 116 154 136 100 58 73 80 323 309 112 95 19 125 76 62 129 84 83 88 71 51 1 8 66 107 128 238 275 272 342 344 41 88 218 105 65 75 109 139 172 154 172 206 229 245 251 328 286 256 235 201 190 164 136 120 103 155 204 183 198 226 238 281 289 288 294 298 303 305 305 309 309 303 303 303 304 308 309 308
93 109 55 333 357 41 51 26 54 96 151 143 122 143 131 116 339 330 100 117 166 102 53 55 131 113 123 129 103 84 343 350 22 83 140 228 267 290 303 117 75 338 320 47 32 71 93 334 263 174 217 239 245 253 246 127 245 242 236 216 194 174 148 141 170 202 159 116 270 254 208 250 279 287 295 295 297 300 300 302 302 300 300 297 299 302 301 300
56 145 136 113 359 44 47 38 72 86 85 89 101 121 129 127 143 175 181 16 24 72 70 43 314 246 177 160 129 127 123 6 360 62 136 240 285 331 341 97 85 342 9 31 344 86 114 272 244 162 268 270 268 278 264 219 244 249 236 227 208 182 177 193 213 194 156 193 255 264 188 245 272 287 290 286 289 290 289 291 292 292 290 290 295 298 295 297
70 111 41 6 98 141 70 34 95 90 74 73 88 116 148 158 173 198 187 72 20 337 83 151 275 240 158 126 105 127 187 162 337 260 185 160 232 291 344 317 342 356 44 64 353 70 129 256 224 144 291 284 280 295 282 225 254 273 245 228 217 202 197 211 228 201 189 234 256 270 280 276 275 276 278 281 285 284 285 289 291 290 289 291 295 294 295 299
127 147 161 60 72 97 38 29 77 84 58 51 86 136 162 159 171 198 166 118 126 246 176 183 210 149 121 106 97 102 225 169 112 244 173 138 264 219 212 215 157 39 38 72 353 347 94 285 161 108 319 296 298 317 312 209 224 262 262 238 213 213 213 225 239 215 206 246 261 270 279 277 272 267 270 278 282 285 288 290 289 284 284 292 297 299 301 303
107 129 145 111 73 2 9 26 63 95 77 31 119 160 180 185 185 163 105 73 142 173 187 171 157 128 81 83 109 300 235 161 123 192 171 146 110 188 190 194 139 124 68 91 9 2 59 299 28 53 358 292 296 320 309 295 252 262 279 257 204 195 207 218 226 202 195 225 261 277 268 266 268 269 277 282 287 296 292 289 289 289 293 303 304 303 302 298
108 87 110 107 82 351 65 60 32 101 138 236 143 154 190 211 196 136 95 50 60 108 190 165 146 118 82 153 227 256 219 155 130 113 142 117 77 86 82 60 91 116 154 137 66 12 96 104 56 45 342 276 292 308 305 318 334 296 285 231 183 183 208 225 240 224 207 195 196 230 241 259 283 320 309 300 299 297 292 293 299 298 302 306 298 293 292 289